NS3L-13 Weather Reports


time (UTC)temp
F
wind
direction
speed
knots
gust
knots
rain 1hr
in
rain 24hr
in
rain mn
in
humidity
%
barometer
mb
20260504050504 45 263 0.9 1.7 0.00 0.00 0.00 65 1014.3
20260504050004 45 263 0.9 2.6 0.00 0.00 0.00 65 1014.2
20260504045504 45 263 0.9 2.6 0.00 0.00 0.00 63 1014.2
20260504045004 46 263 0.9 2.6 0.00 0.00 0.00 62 1014.2
20260504044504 47 263 0.9 1.7 0.00 0.00 0.00 61 1014.2
20260504044005 47 263 1.7 2.6 0.00 0.00 0.00 60 1014.2
20260504043504 47 262 1.7 2.6 0.00 0.00 0.00 59 1014.2
20260504043004 48 260 0.9 2.6 0.00 0.00 0.00 58 1014.2
20260504042505 48 258 1.7 2.6 0.00 0.00 0.00 58 1014.2
20260504042004 47 259 1.7 5.2 0.00 0.00 0.00 58 1014.1
20260504041004 47 242 0.9 1.7 0.00 0.00 0.00 59 1014.0
20260504040505 47 243 0.9 0.9 0.00 0.00 0.00 58 1013.9
20260504035504 48 243 0.9 2.6 0.00 0.00 0.00 56 1013.8
20260504035004 49 242 0.9 1.7 0.00 0.00 0.00 56 1013.7
20260504034504 49 242 0.9 2.6 0.00 0.00 0.00 55 1013.7
20260504034005 49 242 0.9 2.6 0.00 0.00 0.00 55 1013.7
20260504033505 49 242 0.9 2.6 0.00 0.00 0.00 55 1013.7
20260504033006 49 242 0.0 1.7 0.00 0.00 0.00 54 1013.7
20260504032004 49 242 0.9 2.6 0.00 0.00 0.00 54 1013.6
20260504031504 50 242 0.0 2.6 0.00 0.00 0.00 53 1013.6
20260504031004 50 242 0.9 4.3 0.00 0.00 0.00 52 1013.5
20260504030504 50 250 0.9 1.7 0.00 0.00 0.00 52 1013.5
20260504030004 50 250 1.7 2.6 0.00 0.00 0.00 51 1013.4
20260504025504 50 240 0.9 2.6 0.00 0.00 0.00 50 1013.4
20260504025005 51 239 0.9 2.6 0.00 0.00 0.00 50 1013.5
20260504024004 51 239 0.9 2.6 0.00 0.00 0.00 49 1013.5
20260504023504 51 240 0.9 1.7 0.00 0.00 0.00 48 1013.6
20260504023004 52 240 0.9 2.6 0.00 0.00 0.00 47 1013.6
20260504022504 52 239 0.0 2.6 0.00 0.00 0.00 48 1013.6
20260504021504 52 239 1.7 2.6 0.00 0.00 0.00 47 1013.4
20260504021005 52 239 0.9 2.6 0.00 0.00 0.00 46 1013.4
20260504020504 52 238 0.9 4.3 0.00 0.00 0.00 46 1013.4
20260504020004 52 249 1.7 2.6 0.00 0.00 0.00 46 1013.4
20260504015504 53 250 0.9 2.6 0.00 0.00 0.00 46 1013.4
20260504015004 53 250 0.9 2.6 0.00 0.00 0.00 45 1013.4
20260504014505 53 250 0.9 2.6 0.00 0.00 0.00 45 1013.4
20260504013504 54 250 0.9 2.6 0.00 0.00 0.00 44 1013.3
20260504013004 54 251 1.7 2.6 0.00 0.00 0.00 43 1013.3
20260504012504 54 252 1.7 2.6 0.00 0.00 0.00 43 1013.3
20260504011503 54 254 2.6 5.2 0.00 0.00 0.00 43 1013.1
20260504011004 54 246 0.9 2.6 0.00 0.00 0.00 42 1013.1
20260504010504 55 243 1.7 4.3 0.00 0.00 0.00 42 1013.1
20260504010004 55 241 1.7 5.2 0.00 0.00 0.00 42 1013.1
20260504005504 55 248 1.7 4.3 0.00 0.00 0.00 42 1013.0
20260504005004 55 248 1.7 2.6 0.00 0.00 0.00 42 1012.9
20260504004504 55 253 1.7 2.6 0.00 0.00 0.00 41 1012.8
20260504004004 55 257 1.7 5.2 0.00 0.00 0.00 41 1012.7
20260504003504 56 248 0.9 4.3 0.00 0.00 0.00 41 1012.6
20260504003005 56 249 1.7 2.6 0.00 0.00 0.00 40 1012.6
20260504002504 56 282 1.7 5.2 0.00 0.00 0.00 39 1012.5
20260504002004 56 272 2.6 4.3 0.00 0.00 0.00 39 1012.4
20260504001504 57 250 0.9 2.6 0.00 0.00 0.00 39 1012.4
20260504001004 57 247 2.6 5.2 0.00 0.00 0.00 38 1012.4
20260504000505 57 265 1.7 5.2 0.00 0.00 0.00 38 1012.4
20260503235504 58 261 1.7 5.2 0.00 0.00 0.00 37 1012.3
20260503235004 58 258 1.7 6.1 0.00 0.00 0.00 37 1012.2
20260503234504 58 273 2.6 6.1 0.00 0.00 0.00 36 1012.1
20260503234005 58 279 5.2 10.4 0.00 0.00 0.00 36 1012.1
20260503233504 59 271 7.0 10.4 0.00 0.00 0.00 35 1012.0
20260503233004 59 260 3.5 7.8 0.00 0.00 0.00 35 1011.9
20260503232504 59 261 3.5 8.7 0.00 0.00 0.00 34 1011.9
20260503232004 60 261 5.2 8.7 0.00 0.00 0.00 34 1011.9
20260503231004 60 223 4.3 8.7 0.00 0.00 0.00 33 1011.9
20260503230504 60 262 4.3 13.9 0.00 0.00 0.00 34 1011.9
20260503230004 60 310 6.1 14.8 0.00 0.00 0.00 33 1011.9
20260503225507 60 256 7.8 12.2 0.00 0.00 0.00 33 1011.9
20260503225004 60 271 8.7 15.6 0.00 0.00 0.00 32 1011.8
20260503224004 60 265 7.0 12.2 0.00 0.00 0.00 32 1011.7
20260503223510 60 264 5.2 12.2 0.00 0.00 0.00 32 1011.8
20260503223015 61 286 6.1 13.0 0.00 0.00 0.00 32 1011.8
20260503222515 61 241 5.2 13.0 0.00 0.00 0.00 32 1011.8
20260503222004 60 291 6.1 10.4 0.00 0.00 0.00 33 1011.8
20260503221504 60 270 6.1 13.9 0.00 0.00 0.00 33 1011.8
20260503220504 60 255 5.2 12.2 0.00 0.00 0.00 32 1011.8
20260503215504 59 243 7.0 13.9 0.00 0.00 0.00 32 1011.9
20260503214004 60 282 7.0 14.8 0.00 0.00 0.00 32 1011.7
20260503213505 60 274 6.1 11.3 0.00 0.00 0.00 31 1011.7
20260503213005 60 281 5.2 11.3 0.00 0.00 0.00 32 1011.7
20260503212505 60 289 10.4 14.8 0.00 0.00 0.00 30 1011.6
20260503212004 60 279 7.0 15.6 0.00 0.00 0.00 31 1011.5
20260503211505 60 292 7.8 13.9 0.00 0.00 0.00 30 1011.6
20260503211004 60 283 8.7 13.0 0.00 0.00 0.00 31 1011.6
20260503210007 60 283 7.8 13.9 0.00 0.00 0.00 30 1011.7
20260503205503 60 257 8.7 15.6 0.00 0.00 0.00 31 1011.7
20260503204504 60 265 7.0 14.8 0.00 0.00 0.00 31 1011.7
20260503204004 60 316 6.1 13.9 0.00 0.00 0.00 32 1011.6
20260503203504 60 262 6.1 11.3 0.00 0.00 0.00 32 1011.7
20260503203004 60 266 6.1 10.4 0.00 0.00 0.00 31 1011.8
20260503202504 59 293 6.1 13.0 0.00 0.00 0.00 32 1011.9
20260503202005 59 293 10.4 15.6 0.00 0.00 0.00 31 1012.0
20260503201504 59 298 10.4 18.2 0.00 0.00 0.00 31 1011.9
20260503201005 59 281 10.4 17.4 0.00 0.00 0.00 32 1012.0
20260503200504 59 291 8.7 20.0 0.00 0.00 0.00 32 1012.0
20260503195504 59 262 9.6 17.4 0.00 0.00 0.00 32 1012.2
20260503195004 59 278 8.7 14.8 0.00 0.00 0.00 32 1012.2
20260503194504 58 302 8.7 17.4 0.00 0.00 0.00 32 1012.3
20260503194004 58 282 8.7 17.4 0.00 0.00 0.00 34 1012.3
20260503193503 58 300 11.3 20.0 0.00 0.00 0.00 33 1012.4
20260503192004 56 297 7.0 12.2 0.00 0.00 0.00 34 1012.6
20260503190505 58 264 14.8 22.6 0.00 0.00 0.00 32 1012.7
20260503190004 57 298 10.4 28.7 0.00 0.00 0.00 36 1012.6
20260503185504 56 297 9.6 21.7 0.00 0.00 0.00 35 1012.6
20260503185003 56 300 7.8 13.9 0.00 0.00 0.00 35 1012.8
20260503184503 57 292 10.4 20.0 0.00 0.00 0.00 33 1012.8
20260503184004 57 293 12.2 20.9 0.00 0.00 0.00 36 1012.8
20260503183504 56 297 8.7 17.4 0.00 0.00 0.00 33 1012.8
20260503183004 56 268 8.7 20.0 0.00 0.00 0.00 34 1012.9
20260503182505 56 286 8.7 18.2 0.00 0.00 0.00 34 1012.9
20260503182005 56 271 8.7 14.8 0.00 0.00 0.00 35 1012.9
20260503181505 56 279 8.7 19.1 0.00 0.00 0.00 35 1012.9
20260503181004 56 322 10.4 15.6 0.00 0.00 0.00 36 1013.0
20260503180503 56 276 10.4 20.9 0.00 0.00 0.00 35 1013.0
20260503180004 55 294 7.8 18.2 0.00 0.00 0.00 36 1013.0
20260503175504 55 293 10.4 19.1 0.00 0.00 0.00 35 1013.1
20260503175004 56 262 8.7 18.2 0.00 0.00 0.00 34 1013.1
20260503174503 56 287 10.4 15.6 0.00 0.00 0.00 33 1013.1
20260503174004 56 302 11.3 28.7 0.00 0.00 0.00 34 1013.1
20260503173504 56 296 6.1 12.2 0.00 0.00 0.00 35 1013.1
20260503173004 56 288 8.7 15.6 0.00 0.00 0.00 37 1013.2
20260503172504 55 299 10.4 17.4 0.00 0.00 0.00 34 1013.2
20260503172004 55 300 8.7 17.4 0.00 0.00 0.00 35 1013.2
20260503171504 55 312 7.8 20.0 0.00 0.00 0.00 35 1013.3
20260503171004 54 290 10.4 19.1 0.00 0.00 0.00 36 1013.3
20260503151004 49 296 6.1 12.2 0.00 0.00 0.00 49 1014.5
20260503150504 49 292 8.7 13.0 0.00 0.00 0.00 48 1014.4
20260503130511 46 316 11.3 17.4 0.00 0.00 0.00 54 1014.4
20260503110504 43 310 2.6 7.0 0.00 0.00 0.00 64 1014.0
20260503081504 45 309 5.2 10.4 0.00 0.00 0.00 58 1012.3
20260503081004 45 325 6.1 12.2 0.00 0.00 0.00 58 1012.2
20260503080504 45 303 8.7 12.2 0.00 0.00 0.00 58 1012.2
20260503072504 46 300 5.2 10.4 0.00 0.01 0.00 56 1012.0
20260503072004 46 306 7.8 11.3 0.00 0.01 0.00 56 1012.1
20260503071504 46 321 4.3 8.7 0.00 0.01 0.00 56 1012.1
20260503071004 46 323 2.6 7.0 0.00 0.01 0.00 56 1012.1
20260503070505 46 309 2.6 5.2 0.00 0.01 0.00 55 1012.0
20260503055004 47 309 3.5 7.0 0.00 0.02 0.00 59 1012.3
20260503054504 47 312 2.6 5.2 0.00 0.02 0.00 59 1012.3
20260503054004 47 320 2.6 4.3 0.00 0.02 0.00 59 1012.3
20260503053504 47 317 2.6 4.3 0.00 0.02 0.00 58 1012.3